Wind_Speed
130 130 131 133 134 136 137 137 137 136 136 136 136 136 136 135 134 133 132 132 131 131 131 131 130 130 129 129 128 128 128 127 127 126 126 125 125 125 126 125 124 123 122 121 121 120 119 119 119 119 119 118 118 118 119 119 120 121 121 120 119 117 116 115 112 109 109 110 110 111 111 110 109 108 107 106 104 103 101 98 96 94 93 93 93
133 133 134 135 136 137 138 140 141 142 142 142 142 142 141 141 141 140 140 139 138 137 137 136 136 136 135 135 134 134 134 134 134 134 133 133 133 132 132 131 130 129 127 126 126 125 124 123 123 123 123 122 122 122 122 122 123 124 125 124 124 123 123 122 119 116 114 114 114 115 115 114 112 111 110 109 108 107 106 104 101 99 98 98 97
134 135 136 137 137 138 139 141 142 143 144 146 146 147 147 147 147 146 146 145 145 144 143 143 142 141 141 140 140 140 139 139 139 140 139 139 138 138 137 137 136 134 133 133 132 132 131 130 129 129 128 128 127 127 127 126 126 127 128 128 128 127 127 127 125 123 120 118 118 118 118 117 116 115 114 114 113 112 110 109 107 104 103 103 103
131 133 135 137 138 139 140 141 143 144 145 146 147 149 150 151 151 151 152 151 151 151 150 149 148 147 147 146 146 145 145 145 145 145 144 144 143 142 142 142 142 141 140 140 139 139 138 137 136 135 134 133 133 133 133 132 131 131 131 131 131 131 131 131 130 128 125 123 122 121 121 122 120 119 118 118 118 116 115 114 112 110 109 108 109
126 128 130 132 134 136 138 140 141 143 145 147 148 149 150 152 153 153 154 155 156 156 156 155 154 154 153 152 151 151 150 150 149 149 149 149 148 148 147 147 147 147 146 146 145 144 144 143 142 142 141 140 139 139 138 138 137 136 135 135 135 135 134 134 133 132 130 128 126 125 125 125 125 124 124 123 123 122 120 118 117 116 114 114 113
123 124 125 126 128 130 132 134 136 138 140 143 145 147 149 151 153 154 155 156 157 158 159 159 159 159 158 157 157 156 155 154 154 153 153 153 153 153 152 152 153 152 152 151 150 150 149 149 148 148 147 146 145 144 144 144 143 141 140 139 139 139 138 137 136 135 134 132 130 129 129 128 128 128 128 128 128 127 126 123 121 120 119 117 117
120 121 122 123 124 125 126 127 129 131 133 135 137 140 142 145 148 151 155 157 158 159 160 160 161 161 162 161 161 160 160 159 158 158 158 157 157 157 157 157 157 157 157 157 156 155 154 154 154 154 153 153 151 150 149 149 148 146 145 143 142 142 141 141 140 139 138 136 134 133 132 131 131 131 131 132 132 131 130 127 125 124 123 120 118
117 118 120 121 122 123 123 124 125 126 127 128 130 132 134 136 139 143 147 151 155 158 160 161 162 163 163 163 164 163 163 163 162 162 162 162 161 161 161 160 160 160 160 160 160 160 159 159 159 159 159 158 157 156 154 152 151 149 148 146 145 144 143 143 143 142 141 139 138 136 135 135 134 134 134 134 134 133 132 132 131 130 128 124 121
115 116 117 119 120 121 122 123 123 123 124 124 125 126 128 129 131 134 136 140 144 149 153 157 160 162 163 164 165 165 165 165 165 165 166 166 165 165 164 164 164 164 164 164 164 164 164 163 163 162 162 161 160 158 155 153 150 148 147 146 146 145 144 143 143 143 142 141 140 139 138 138 137 137 137 136 136 136 136 136 136 134 131 127 123
112 113 115 116 118 119 120 121 122 122 123 123 123 124 124 125 126 127 129 131 133 136 140 144 148 152 156 159 162 163 164 165 166 167 167 168 168 168 168 167 167 166 166 166 165 165 164 164 162 160 158 156 154 152 149 146 144 143 142 142 142 142 142 141 141 141 140 139 139 139 138 137 137 136 136 136 137 137 137 136 135 133 131 128 124
108 109 111 112 114 115 116 117 119 120 121 121 122 122 122 123 123 123 124 125 126 128 129 131 134 137 141 144 148 151 154 156 158 160 162 164 165 165 165 165 164 163 162 161 160 159 157 156 154 151 148 145 142 140 139 137 136 135 136 136 136 136 136 136 136 136 136 136 136 136 135 134 132 131 132 132 132 132 131 130 130 129 127 124 121
103 104 105 106 107 109 110 111 112 114 115 117 117 118 119 120 120 121 122 122 123 123 124 125 127 128 130 132 134 136 138 141 144 146 149 151 153 153 153 153 152 151 149 147 146 145 144 143 142 140 139 137 134 132 131 130 130 130 130 130 130 129 129 129 129 130 131 130 130 129 128 126 125 124 124 123 123 123 123 123 122 121 120 118 117
100 101 101 102 102 103 103 104 105 107 109 110 111 112 113 114 115 116 117 118 119 120 121 122 123 124 126 127 128 128 129 131 133 136 138 140 142 143 142 141 140 139 137 135 133 133 133 134 134 134 133 132 131 130 128 127 127 127 127 126 125 124 123 122 122 123 124 124 123 122 120 120 119 118 117 117 117 117 117 116 116 116 115 114 113
99 100 100 100 100 100 100 100 101 102 103 104 105 106 108 109 110 111 112 112 113 114 116 117 118 120 121 123 123 123 124 125 127 130 131 133 134 136 136 135 133 131 130 129 128 127 126 127 128 129 129 129 129 128 127 126 126 126 125 124 123 121 119 118 118 118 119 120 119 117 116 116 115 115 114 114 113 113 112 112 112 114 114 113 113
97 98 98 98 98 98 98 98 99 99 99 100 100 101 103 104 105 106 107 108 109 110 112 113 114 115 116 118 118 119 119 121 123 125 126 127 128 129 130 129 128 126 125 124 123 122 122 122 123 123 124 125 126 126 126 126 126 125 124 123 121 120 118 117 116 116 116 117 116 114 114 114 114 113 113 112 111 110 110 111 112 113 114 114 113
94 95 95 96 96 96 97 97 97 97 96 97 97 98 99 99 100 101 102 103 105 106 108 108 109 110 111 113 114 114 115 117 119 122 123 124 125 125 125 124 123 122 120 119 119 119 118 118 118 117 117 118 120 122 123 124 124 123 122 121 120 119 117 116 115 116 116 116 115 114 114 114 114 112 111 110 110 109 110 111 111 112 112 112 110
91 92 92 93 94 94 95 95 94 94 95 95 95 95 96 96 96 97 98 99 100 101 102 102 103 105 106 108 110 110 110 112 115 118 119 120 121 122 122 121 120 119 118 117 117 117 117 116 115 114 113 113 114 116 119 121 122 120 118 118 118 117 115 113 113 115 116 116 115 114 114 114 114 113 111 109 109 109 110 109 109 109 111 110 108
89 89 90 90 91 92 92 92 91 92 93 93 93 93 93 94 94 95 95 94 94 95 96 97 98 100 102 103 105 106 106 107 111 114 115 116 118 118 118 117 117 116 115 115 115 116 116 115 115 114 112 111 112 114 117 119 120 118 116 114 114 114 112 110 110 113 115 115 114 113 112 113 114 114 112 110 108 109 109 107 107 109 110 108 107
88 88 89 89 90 90 89 89 89 90 90 91 91 91 92 93 93 93 92 92 91 91 93 93 93 95 98 100 101 102 103 104 106 109 110 111 113 114 113 113 112 112 113 113 113 113 113 113 113 114 112 111 111 113 115 118 118 117 115 113 111 110 109 110 111 112 113 113 111 109 109 111 112 113 112 110 108 107 106 106 107 108 107 106 106
87 88 89 89 89 89 88 88 88 89 89 89 90 91 91 91 91 91 91 91 90 90 90 91 91 93 95 97 98 99 100 100 102 104 106 106 108 109 109 109 108 108 109 109 109 109 109 110 111 112 112 112 111 112 114 116 116 115 114 112 109 105 105 109 113 114 111 109 107 106 106 107 108 110 110 109 107 105 104 105 106 106 105 105 106
87 88 89 89 89 88 88 88 88 88 88 88 89 90 90 90 90 90 90 90 89 89 90 91 91 92 94 96 96 97 98 97 98 100 102 103 104 105 105 104 104 104 104 104 104 104 105 106 107 109 111 112 111 111 112 113 114 113 111 110 107 104 104 107 111 113 111 107 105 104 103 102 103 105 106 107 106 105 103 104 105 105 104 104 105
87 88 88 88 88 88 88 88 88 88 88 88 88 89 89 90 89 89 89 88 88 89 90 90 91 91 93 94 95 96 96 96 97 98 99 100 101 102 102 101 101 101 99 99 100 100 100 102 103 105 107 109 110 110 111 111 111 111 108 106 105 105 106 107 108 109 109 107 104 102 101 100 100 101 102 103 104 105 105 105 104 104 103 104 103
87 87 87 87 87 87 87 87 87 87 88 88 88 88 89 89 88 88 87 87 87 88 89 90 90 90 92 94 94 95 95 96 96 97 98 99 100 101 101 100 100 99 97 96 96 97 97 97 99 101 103 105 106 107 109 109 110 108 106 104 103 104 106 107 107 106 105 105 103 100 99 99 98 98 99 100 102 105 107 107 106 104 102 102 102
86 86 85 85 85 85 85 85 86 86 87 87 87 87 88 87 87 87 87 86 87 88 89 90 90 90 91 92 94 94 94 95 96 97 97 98 99 100 100 100 99 98 96 95 95 95 95 96 96 98 100 101 102 104 105 106 107 107 105 104 103 102 104 105 106 104 102 101 101 99 97 97 98 98 98 99 102 104 106 107 107 105 102 100 99
84 83 83 83 83 83 82 83 85 85 86 86 86 86 86 85 86 86 86 86 86 87 88 89 89 89 90 91 92 93 94 94 95 96 97 97 98 98 98 98 98 97 96 94 94 94 95 95 96 97 98 99 100 101 102 103 104 105 105 104 102 101 101 102 103 103 101 99 98 98 97 97 97 98 99 100 102 102 102 103 104 104 103 100 99
82 81 81 81 81 80 80 82 83 84 84 84 84 83 83 83 83 84 84 84 85 86 87 87 88 88 88 89 90 91 92 93 94 95 95 96 96 96 96 96 96 96 95 93 93 93 93 94 95 96 97 97 98 99 99 100 102 104 104 103 102 100 98 99 100 100 100 98 97 97 98 98 98 99 100 101 100 99 99 100 100 101 101 101 101
81 81 81 80 79 79 79 81 82 82 83 83 82 82 81 81 81 81 81 82 83 84 84 85 85 85 86 87 87 88 89 91 91 92 93 93 93 93 93 93 93 92 92 91 91 92 92 92 93 94 95 96 97 98 98 99 101 103 103 102 101 99 96 96 97 98 98 97 97 96 97 99 101 100 99 99 98 97 98 98 99 99 99 100 101
81 81 81 79 79 79 80 81 81 81 81 81 81 80 80 80 79 79 79 79 80 81 81 81 82 82 81 82 83 84 85 87 87 88 89 89 89 89 89 89 88 87 87 87 87 88 89 89 89 91 93 94 96 97 98 98 99 101 102 102 101 99 96 94 94 95 95 95 96 96 96 98 100 99 98 98 98 98 98 98 98 98 98 99 100
79 80 79 78 78 79 80 80 79 79 79 79 79 79 78 78 78 78 77 78 78 77 77 78 78 78 78 78 78 79 81 83 84 84 84 85 85 85 85 85 84 83 83 83 82 83 84 85 85 87 89 92 93 94 96 96 97 99 100 101 100 98 95 92 91 91 92 93 94 95 96 97 98 99 99 98 98 98 98 98 98 97 98 99 99
77 77 76 76 76 78 78 77 77 77 77 76 76 77 77 77 77 76 76 76 76 76 75 75 76 76 76 76 76 76 77 78 80 81 81 81 81 81 81 80 80 80 80 79 79 80 81 82 82 83 85 87 88 90 91 94 95 96 98 99 98 96 94 91 89 89 90 92 93 94 95 97 97 97 98 97 97 97 98 98 97 97 97 98 99
73 74 73 73 74 75 74 74 74 74 74 73 73 73 73 75 76 76 75 73 74 74 74 73 73 73 73 73 73 74 74 75 76 77 78 78 78 78 77 76 75 75 75 75 76 77 78 79 80 81 82 83 85 85 87 89 91 93 94 95 95 94 92 90 89 89 90 91 92 93 94 95 95 95 96 96 96 97 97 97 97 97 97 97 98
70 70 70 71 72 72 71 71 71 71 71 70 70 69 69 71 74 76 75 73 71 71 71 71 71 71 70 70 70 71 72 72 72 73 74 74 74 75 75 73 72 71 70 69 71 74 76 76 77 78 79 80 82 83 83 85 86 87 88 89 90 90 89 89 88 89 90 91 92 92 91 92 92 93 95 96 96 96 96 96 97 96 97 97 98
68 68 68 68 69 70 69 68 68 68 68 68 68 68 68 68 70 73 75 74 72 70 69 68 68 69 69 68 68 68 68 69 69 70 71 71 71 71 72 71 70 68 67 66 67 69 72 73 74 76 77 78 79 80 81 81 82 82 82 84 85 86 86 87 87 88 88 90 91 91 90 89 89 90 92 94 95 95 95 95 96 96 97 97 97
68 67 67 67 68 68 68 67 66 66 66 66 66 66 66 67 68 69 71 72 73 71 69 67 65 65 65 66 66 65 65 65 66 66 67 67 67 68 69 69 68 65 64 64 65 66 68 70 71 73 74 75 76 77 77 78 78 78 78 79 80 82 83 84 85 85 86 88 90 90 89 88 87 88 89 91 93 94 94 95 95 96 96 97 97
67 66 66 65 66 67 66 65 65 65 65 65 65 65 65 65 66 67 67 68 69 70 69 67 65 64 63 62 63 63 62 62 62 63 62 63 63 64 65 66 66 64 62 61 62 63 65 66 67 69 71 72 73 73 74 75 75 75 76 77 78 80 81 82 83 83 84 86 88 89 89 88 86 86 87 89 91 92 93 94 94 95 96 97 97
66 65 65 65 65 65 64 63 63 63 63 63 63 63 63 63 63 65 65 66 66 66 67 66 65 64 63 61 60 60 60 60 60 60 59 59 59 60 61 63 63 62 60 59 60 61 62 63 64 65 67 69 70 70 71 72 72 73 74 75 76 78 79 80 80 81 82 83 84 86 87 87 86 85 86 87 89 91 92 92 93 94 95 95 96
65 64 63 64 63 62 62 61 61 61 61 61 61 61 61 61 62 62 63 64 64 64 64 63 62 63 63 61 60 59 57 57 58 58 58 58 57 57 57 59 60 59 58 57 57 59 60 60 61 62 63 65 66 67 68 69 70 71 73 74 75 76 77 78 78 79 79 80 80 82 84 86 86 86 85 86 87 89 90 91 91 92 92 93 94
63 63 62 62 61 60 60 60 59 58 58 59 59 59 60 60 60 61 62 62 62 62 62 62 60 60 60 61 60 59 57 55 55 56 56 56 56 56 55 55 56 57 56 55 55 56 57 58 58 59 60 62 63 64 65 66 68 69 71 72 73 75 75 75 76 76 77 77 78 79 81 83 85 85 85 85 85 87 88 89 89 89 89 90 91
63 62 61 61 61 60 60 59 58 57 57 57 57 58 58 59 59 60 60 61 61 60 60 60 59 58 58 58 59 60 58 55 53 54 55 54 53 54 54 53 54 54 54 53 53 54 55 55 56 57 58 59 61 62 63 65 66 68 69 70 71 72 73 73 73 74 75 75 75 77 78 81 82 83 84 84 84 85 87 87 87 87 87 86 87
63 62 61 61 61 60 60 60 59 58 57 57 57 57 58 58 58 59 59 59 59 59 59 58 57 56 56 56 57 58 58 56 53 52 53 53 52 51 52 52 51 52 52 52 52 52 52 53 53 54 55 56 57 59 60 61 62 64 66 67 69 70 70 71 71 72 72 73 74 75 76 77 79 80 81 82 82 84 85 85 86 86 85 85 85
63 62 61 61 61 61 60 60 59 58 58 57 57 57 57 57 57 58 58 58 58 58 58 57 56 55 54 54 55 56 57 57 54 51 51 52 52 51 50 49 49 49 50 50 50 50 50 50 51 52 52 53 54 55 56 57 59 60 62 64 66 67 68 69 69 70 70 71 72 73 74 75 75 76 77 79 80 82 83 84 84 85 85 84 84
62 62 61 60 61 61 60 59 59 58 57 57 57 56 56 56 56 56 56 57 57 57 56 56 55 54 53 52 53 53 55 55 54 52 50 50 51 51 49 48 47 47 48 48 48 48 48 48 49 49 50 50 51 52 53 54 56 57 60 62 63 64 66 66 67 68 68 69 70 71 71 72 72 73 74 76 78 81 82 82 83 84 84 85 85
61 60 60 60 60 60 59 58 58 57 56 56 55 55 55 55 55 55 55 55 55 55 55 55 54 53 52 51 51 51 52 53 53 52 50 49 49 50 49 47 47 46 46 46 46 47 47 47 47 48 48 48 49 49 50 51 53 55 57 59 61 62 63 64 65 66 66 67 68 68 69 69 70 71 73 75 77 79 80 81 82 83 84 85 85
60 59 59 58 58 58 58 57 56 55 54 54 54 54 54 54 54 54 53 53 53 53 53 53 53 52 52 51 50 50 50 50 51 51 50 48 48 48 48 47 46 45 44 44 44 45 45 45 46 47 47 47 47 47 48 49 50 52 54 57 58 60 61 62 62 63 64 64 65 66 66 67 68 70 72 73 75 77 79 80 82 83 84 84 84
58 58 57 57 57 56 56 55 54 54 53 53 52 53 53 53 54 53 53 52 51 51 51 51 51 51 51 50 50 50 49 49 48 49 49 48 46 46 46 46 45 44 43 43 42 43 43 44 44 45 46 46 46 46 46 46 48 49 52 54 56 57 58 59 60 61 61 62 63 63 64 65 67 69 70 72 74 75 77 79 80 81 82 83 83
56 56 56 55 55 54 54 53 53 52 52 52 52 52 52 52 52 52 52 51 50 50 49 49 50 50 49 49 49 49 49 48 47 47 48 47 46 45 45 45 44 43 42 42 41 41 42 42 43 43 44 45 45 44 44 45 46 47 49 51 53 55 57 58 58 59 60 60 61 62 63 64 65 67 69 71 73 74 76 77 79 80 81 81 82
54 54 54 53 53 53 52 51 51 50 50 51 51 51 51 51 51 51 51 50 49 48 48 48 48 48 48 48 48 48 48 48 47 46 46 47 45 44 43 44 43 42 41 40 40 39 40 40 41 42 43 43 44 43 43 43 44 45 47 49 51 53 54 56 57 57 58 59 59 60 61 62 63 65 67 69 71 73 74 76 77 78 79 80 81
52 52 52 52 52 51 50 50 49 49 49 49 49 50 50 50 50 50 50 49 48 47 47 46 46 46 45 46 47 48 48 47 46 45 45 45 44 42 41 42 42 41 40 39 39 38 38 39 39 40 41 42 42 43 42 42 43 44 46 47 49 51 52 53 54 55 56 57 58 58 59 60 61 63 65 67 69 71 73 74 75 76 77 78 80
51 51 51 51 50 50 49 49 48 48 48 48 48 49 49 49 49 49 48 48 47 46 46 45 44 43 43 44 45 46 46 46 46 44 43 43 43 42 40 40 41 40 39 38 38 37 37 37 38 38 39 40 41 42 42 41 42 42 44 45 47 49 50 51 52 53 53 54 55 56 57 57 59 60 63 65 67 69 70 72 73 74 76 77 79
51 50 50 50 49 49 48 48 47 47 47 47 47 47 48 48 48 47 47 46 46 46 45 44 43 42 41 41 43 44 44 44 44 43 41 41 42 41 40 38 39 39 38 37 37 36 36 36 37 37 38 39 40 41 41 41 41 41 42 43 45 47 49 50 51 51 52 52 53 54 54 55 57 58 60 62 64 66 67 69 71 72 74 76 77
50 50 49 49 48 48 47 47 46 46 46 46 46 46 46 46 46 45 45 45 45 45 44 43 42 40 39 39 41 42 42 42 41 41 40 39 39 40 39 38 37 38 38 37 36 36 36 35 36 36 37 38 39 40 40 41 41 41 41 42 43 45 47 49 50 51 51 52 52 52 53 54 55 56 58 60 61 63 64 66 68 70 71 73 74
Wind_Direction
259 258 258 258 257 257 257 256 256 255 255 255 254 254 254 254 254 253 253 253 253 253 253 253 253 254 254 254 255 255 255 256 256 256 256 256 256 257 257 258 258 258 258 259 259 260 260 260 261 262 262 262 262 262 262 263 263 264 264 264 263 262 262 261 260 260 260 260 261 261 262 263 264 265 265 265 266 265 264 263 262 262 263 264 264
260 259 259 258 258 257 257 257 257 256 256 256 255 255 255 255 255 255 254 254 254 254 254 254 254 254 254 254 255 255 255 256 256 257 257 257 257 257 257 258 258 259 259 259 260 260 260 260 261 261 261 262 262 262 262 262 262 262 262 263 263 263 263 262 261 261 260 260 260 261 261 262 263 263 263 264 265 265 265 265 265 264 264 265 265
262 261 261 260 259 258 258 257 257 257 257 256 256 256 256 256 256 256 255 255 255 255 255 255 255 255 255 255 255 256 256 257 257 258 258 258 258 258 258 258 259 259 259 260 261 261 262 262 262 262 262 262 262 262 262 262 262 261 261 261 261 261 261 261 261 261 260 260 260 260 261 262 262 262 263 263 264 264 265 265 266 266 266 266 266
263 262 262 261 261 260 259 258 258 257 257 257 257 257 257 257 257 256 256 256 256 256 256 256 256 256 256 256 256 257 257 257 258 258 259 259 259 259 259 259 259 260 260 260 261 262 263 263 263 264 264 264 264 264 264 263 263 262 261 261 260 259 259 259 259 260 259 259 259 259 259 260 261 261 262 263 263 263 264 264 264 265 265 265 265
265 265 264 263 263 262 261 260 260 259 258 257 257 257 257 257 257 257 257 257 257 257 257 257 257 257 257 257 257 257 257 258 258 258 259 259 259 259 259 260 260 260 260 261 261 262 263 263 264 264 265 265 265 265 265 264 264 263 262 261 260 259 259 258 258 258 258 258 258 258 258 259 260 261 261 262 262 262 262 263 263 263 264 264 264
267 267 266 265 265 264 263 263 262 262 261 260 259 258 258 257 257 257 258 258 258 258 258 258 258 258 258 258 258 258 258 258 258 258 259 259 259 259 259 260 260 260 261 261 261 262 262 263 264 264 265 265 265 265 265 265 265 264 263 262 260 260 259 259 259 258 258 258 257 257 258 259 260 261 261 262 262 262 262 262 262 263 263 263 263
268 268 267 267 267 266 266 265 264 264 263 262 262 261 260 259 258 258 257 257 258 258 258 258 258 259 259 259 259 259 259 259 259 259 259 259 259 259 259 260 260 261 261 262 262 262 262 262 263 263 264 264 264 264 265 265 265 264 263 262 260 259 259 258 258 258 259 258 258 258 258 258 259 260 261 262 262 263 263 264 264 263 263 263 262
268 268 268 268 267 267 267 267 266 266 265 264 264 263 262 261 260 259 258 258 257 257 258 258 258 258 259 259 259 259 259 260 260 260 260 260 260 260 260 260 260 261 261 262 262 262 262 263 263 263 263 264 264 264 264 264 264 264 263 262 261 260 259 258 258 258 258 258 258 258 258 258 259 259 260 261 262 263 264 265 264 264 263 262 260
268 268 268 267 267 267 267 267 267 266 266 266 265 265 264 264 263 262 261 260 259 259 258 258 258 258 259 259 259 259 260 260 260 260 260 261 261 260 260 261 261 261 261 262 262 263 263 263 263 263 264 264 264 264 263 263 263 263 263 262 261 261 260 259 258 258 258 258 258 258 258 258 258 259 259 260 261 262 263 263 263 263 262 261 260
269 268 268 267 267 267 267 267 267 267 266 266 266 266 266 265 265 264 264 263 262 261 261 260 260 260 260 260 260 260 260 260 260 261 261 261 261 261 261 261 261 261 262 262 263 263 264 264 264 264 264 264 264 264 263 263 262 262 262 261 261 261 260 260 259 259 259 258 258 258 258 258 258 258 259 259 260 260 261 261 261 261 261 260 259
270 269 269 268 268 267 267 267 267 267 267 267 267 267 266 266 266 266 265 265 264 264 263 263 262 262 262 261 261 261 261 261 261 262 262 262 262 262 263 262 262 262 262 262 263 263 263 264 264 264 264 264 263 263 263 263 262 262 261 261 261 260 260 260 260 260 259 259 259 259 259 258 258 258 258 258 259 259 259 259 259 259 259 259 258
272 271 270 269 269 268 268 268 268 268 267 267 267 267 267 267 266 266 266 266 265 265 265 265 264 264 263 263 262 262 262 262 262 262 262 263 263 263 263 263 263 263 262 262 262 262 262 262 263 263 263 263 263 263 262 262 262 262 261 261 260 260 260 260 260 259 259 259 259 259 259 259 258 258 257 257 257 257 257 258 258 258 258 258 257
275 274 273 272 271 270 270 269 268 268 268 267 267 267 267 267 267 267 266 266 266 266 266 266 265 265 265 264 263 263 262 262 262 262 263 263 263 263 263 263 263 263 263 262 262 261 261 262 262 262 263 263 263 263 263 262 262 262 262 261 261 260 260 259 259 259 259 259 259 259 259 259 258 258 257 256 256 256 257 257 257 258 257 257 256
277 277 276 275 274 273 272 271 270 269 268 268 268 267 267 267 267 267 266 266 266 266 266 266 265 265 265 265 265 264 264 264 264 263 263 263 264 264 264 264 264 264 264 263 263 262 261 261 261 262 262 263 263 263 263 263 262 262 262 262 261 261 260 260 259 259 259 259 259 259 259 258 258 257 257 256 256 256 256 256 256 256 256 256 255
278 277 277 276 276 275 274 273 272 271 271 270 269 268 268 267 267 267 266 266 266 266 265 265 265 265 265 265 265 265 265 265 265 264 264 264 264 264 265 265 265 265 264 264 264 263 262 262 261 261 261 261 262 262 262 262 262 262 261 261 261 261 261 260 260 260 259 259 259 259 259 258 258 257 257 257 256 256 256 255 255 255 256 256 255
278 277 277 277 276 276 275 274 274 273 272 272 271 270 269 268 268 267 267 266 266 265 265 265 265 265 265 265 265 265 264 264 264 264 264 264 264 264 265 265 265 265 265 264 264 264 263 262 261 261 261 261 261 261 261 261 261 261 261 261 261 260 260 260 260 260 259 259 259 258 258 258 258 257 257 256 256 256 255 255 255 255 256 257 257
277 276 276 276 276 275 275 274 274 274 274 273 272 272 271 270 270 269 267 267 266 266 266 266 266 266 266 265 265 265 264 264 264 263 263 264 264 264 264 264 264 264 264 264 264 263 263 262 262 261 260 260 260 260 260 261 260 260 260 260 260 260 260 259 259 259 258 258 257 257 257 257 257 257 256 256 255 255 255 255 255 256 256 256 257
277 276 276 275 275 274 274 274 274 274 274 274 273 273 273 272 271 270 269 269 268 268 268 267 267 266 266 265 265 264 264 263 263 263 263 263 263 263 263 263 263 263 263 263 262 262 262 262 262 261 260 259 259 258 258 259 259 260 259 258 259 260 260 260 259 258 257 257 257 256 256 256 256 256 256 255 254 254 255 255 255 255 255 255 255
278 277 276 276 275 275 274 274 274 274 274 274 274 273 273 272 272 271 271 271 270 269 269 268 268 267 266 266 265 264 264 263 263 263 263 263 263 263 263 263 263 263 262 262 262 261 261 261 261 261 260 259 258 257 257 257 258 259 259 258 257 257 258 259 259 257 256 256 256 256 255 255 255 255 256 255 254 254 254 254 254 254 254 254 255
279 278 277 276 276 276 275 275 274 274 274 274 273 273 272 272 272 272 272 271 271 270 270 269 268 268 267 267 266 265 265 264 264 264 264 264 264 264 264 264 263 262 262 262 261 261 261 261 261 261 261 260 258 257 256 257 257 258 258 258 258 256 256 256 257 257 256 256 256 256 255 254 254 255 255 255 255 254 254 253 254 254 254 254 254
278 278 277 277 277 277 276 276 275 275 274 273 273 273 272 272 272 272 272 271 271 271 270 270 269 268 268 268 267 267 266 266 265 265 265 265 265 265 265 264 264 263 262 262 261 261 260 260 260 260 260 260 260 259 257 257 257 257 257 258 258 257 255 254 254 256 256 256 255 255 255 254 254 254 254 255 255 255 254 253 253 253 253 253 253
279 278 278 278 277 277 276 276 275 275 274 274 273 273 273 273 272 272 272 272 272 272 271 270 270 269 269 268 268 268 267 267 267 266 266 266 266 266 266 265 265 264 263 263 262 261 261 260 260 260 260 260 260 260 260 259 258 258 257 257 257 256 256 254 254 254 255 256 255 254 254 254 253 253 253 254 254 254 254 253 252 252 252 252 252
280 279 279 278 278 277 277 276 276 275 274 274 274 273 273 273 273 273 273 272 272 272 271 270 270 270 269 269 269 268 268 268 268 267 267 266 266 266 266 265 265 265 264 263 263 262 261 261 260 260 260 260 260 260 260 260 260 260 259 258 256 255 255 255 255 254 254 255 256 255 254 253 253 252 252 252 252 252 252 253 252 252 251 250 251
280 280 279 279 278 278 277 277 276 276 275 275 274 274 274 274 274 274 273 273 272 272 271 271 270 270 270 269 269 269 269 268 268 268 267 267 266 266 266 266 266 265 265 264 263 263 262 261 261 260 260 260 259 259 260 260 261 261 260 259 257 256 255 255 255 255 255 254 255 255 254 253 252 252 251 250 250 249 250 250 251 251 251 250 250
280 279 279 279 278 278 278 277 277 276 275 275 275 275 275 275 275 275 274 274 273 273 272 272 271 271 271 270 270 270 270 269 269 268 268 267 267 267 267 267 266 266 265 264 264 263 262 262 261 260 260 260 259 259 259 260 260 260 260 259 258 256 255 255 255 255 255 254 254 254 254 253 251 250 250 249 248 248 248 248 249 250 251 250 250
280 280 279 279 278 278 278 278 277 277 276 276 276 276 276 276 276 275 275 274 274 273 273 272 272 272 271 271 271 271 271 270 270 269 268 268 268 267 267 267 267 266 266 265 264 263 262 262 261 261 260 260 260 259 259 259 259 259 259 259 258 257 256 255 255 255 255 254 253 252 252 252 250 249 248 248 247 247 247 247 247 248 249 249 249
281 281 280 280 280 280 279 279 278 278 278 278 278 278 277 277 276 276 275 275 274 274 273 273 273 272 272 272 271 271 271 270 270 270 269 269 269 268 268 267 267 267 266 265 265 264 263 262 261 260 260 259 259 258 258 257 258 258 259 259 258 257 256 254 253 253 253 253 252 251 250 250 250 249 248 248 248 247 247 246 246 246 247 247 248
282 282 282 282 282 281 280 280 280 280 280 280 280 280 280 279 278 277 276 276 275 275 274 274 274 273 272 272 272 272 271 271 270 270 270 270 269 269 268 268 267 267 266 266 265 264 263 262 261 260 259 258 258 257 257 256 256 257 257 258 258 257 256 254 253 253 253 252 252 251 249 249 249 249 249 248 247 247 246 246 245 245 245 246 246
282 282 282 282 282 281 281 281 281 281 282 282 282 282 281 280 280 279 278 277 277 276 276 276 275 275 274 273 273 272 272 272 271 271 270 270 269 269 269 269 268 267 267 266 265 264 264 262 261 260 259 258 257 257 257 256 255 255 256 256 257 257 257 255 254 253 253 252 251 250 249 248 248 248 248 247 246 246 246 245 245 244 244 244 245
283 282 282 282 282 281 281 282 282 282 282 282 282 282 282 281 280 279 279 278 278 277 277 276 276 276 276 275 275 274 273 273 273 272 271 271 270 269 269 268 268 268 267 266 266 264 263 263 261 260 259 258 257 256 256 256 255 255 255 255 256 256 257 256 254 253 252 251 250 250 249 248 248 247 247 247 247 246 246 245 245 244 244 244 244
283 283 283 282 281 281 282 282 282 282 282 281 281 282 282 282 281 280 278 278 278 278 277 277 277 276 276 276 276 275 275 274 274 274 274 273 272 271 270 269 268 267 266 266 265 265 263 262 261 260 259 258 258 257 256 255 255 254 254 255 255 256 256 255 254 252 251 250 249 249 248 248 248 247 247 247 246 246 246 245 245 244 244 244 244
283 283 283 282 282 282 282 282 282 282 282 282 282 282 282 282 282 282 280 279 278 278 278 278 278 277 277 277 276 276 276 276 275 275 275 275 274 274 273 271 269 268 266 265 264 263 263 262 261 260 259 258 258 257 256 255 255 255 255 255 255 255 255 254 253 252 251 250 249 249 248 248 247 247 246 246 245 245 245 245 245 245 244 244 244
284 283 283 283 283 283 283 283 283 283 283 283 283 282 282 282 282 282 282 282 280 279 278 278 278 278 278 278 277 276 276 276 276 276 276 276 275 275 274 273 271 270 268 266 264 262 262 261 261 260 259 258 257 257 257 256 256 255 255 255 255 255 255 254 253 251 251 250 250 249 248 248 247 247 246 246 246 245 245 244 244 244 244 244 243
284 284 283 283 283 283 283 284 284 284 283 283 283 283 282 282 281 281 282 283 283 282 281 279 279 278 278 278 278 277 277 277 276 276 276 276 276 276 275 274 272 271 269 268 266 263 262 261 260 260 259 258 257 257 256 256 256 255 255 254 254 253 253 253 252 251 250 250 250 249 249 248 247 246 246 246 246 245 245 244 243 243 243 244 243
284 284 284 284 283 284 284 284 284 284 284 283 283 282 282 282 281 281 281 282 283 284 284 283 282 281 280 279 279 278 278 277 277 277 276 276 276 275 275 275 274 272 270 268 267 265 263 261 260 259 259 258 258 257 256 255 255 254 253 252 252 251 251 251 251 251 249 248 248 249 249 248 247 245 245 245 245 245 244 244 243 243 242 243 243
285 285 285 284 284 284 284 284 284 284 283 283 283 283 282 282 282 282 282 282 283 283 284 284 284 284 283 281 280 280 280 280 279 279 278 277 276 275 275 275 274 273 271 269 268 266 264 262 260 259 258 258 257 257 256 255 254 254 253 252 251 251 250 250 250 249 249 248 247 248 248 248 247 246 244 244 244 244 244 244 243 243 242 242 242
286 286 286 285 285 285 284 284 283 283 283 283 283 283 283 283 283 283 283 283 284 284 284 284 284 285 284 284 283 282 281 281 281 280 280 279 278 276 275 275 275 273 271 270 268 267 265 263 261 259 258 257 257 256 255 255 254 253 253 252 251 251 250 250 249 249 248 248 247 247 247 247 247 246 245 244 244 244 244 244 244 244 243 243 242
288 288 287 287 287 286 285 285 284 284 284 284 284 284 284 284 283 283 283 283 283 284 284 284 285 285 285 285 285 284 283 282 281 281 280 279 279 278 276 275 275 274 272 270 268 267 265 264 262 260 258 257 256 255 254 253 253 252 251 251 251 251 250 250 249 249 249 248 247 246 246 246 246 246 245 244 244 244 244 244 244 244 243 243 242
289 289 289 288 288 288 287 287 286 286 285 285 284 284 284 284 284 283 283 283 284 284 284 285 285 285 286 286 286 285 284 283 282 281 280 279 278 278 277 276 275 274 273 271 269 267 266 264 262 260 259 257 256 255 254 253 253 252 251 251 251 251 251 250 250 249 249 248 247 247 246 246 245 245 245 245 244 244 244 244 244 244 244 243 242
289 289 289 289 289 288 288 288 287 287 286 286 285 285 285 284 284 284 284 284 284 285 285 285 286 286 286 286 286 286 285 284 283 282 281 280 279 277 277 276 275 274 273 271 270 268 266 265 263 262 260 258 257 256 255 254 254 253 253 252 252 251 251 250 250 250 249 248 247 247 246 246 245 245 245 245 245 244 244 244 244 244 244 243 242
289 289 289 289 288 288 288 287 287 287 287 287 286 286 285 285 285 285 285 285 285 285 286 286 286 286 286 286 286 286 286 285 285 283 282 281 280 278 277 276 275 273 272 271 270 269 267 265 264 262 261 259 258 257 255 254 253 253 252 252 252 252 252 251 250 249 249 248 248 247 246 246 245 245 245 244 245 245 244 244 244 244 244 243 242
288 288 288 287 287 286 286 286 286 286 286 286 286 285 285 285 284 284 285 285 286 286 286 287 287 286 286 285 285 284 285 285 285 284 283 282 281 280 278 277 275 274 272 271 270 268 267 266 264 262 261 260 258 257 255 254 252 251 251 251 251 251 251 251 250 250 249 248 248 247 247 246 245 245 244 244 244 244 244 244 243 243 243 243 242
287 286 286 285 285 285 285 285 285 285 285 285 285 285 284 284 284 284 285 285 285 286 287 287 287 286 285 285 284 284 283 284 284 284 283 282 281 280 279 278 276 274 272 270 269 267 266 265 264 262 261 260 259 257 255 254 252 251 250 250 250 250 250 250 250 250 250 249 248 248 247 246 245 244 243 243 243 243 243 243 243 242 242 242 242
285 285 284 284 284 284 284 285 285 285 285 284 284 284 284 284 284 284 284 285 285 285 286 286 286 286 286 285 285 284 283 283 284 284 283 282 282 281 280 279 277 275 273 270 269 267 265 264 263 262 261 260 259 258 256 254 252 251 250 249 249 249 249 249 249 250 250 249 248 247 246 245 245 244 243 243 243 243 243 243 243 243 242 242 242
284 284 284 284 284 284 284 284 285 285 285 285 285 285 285 285 285 285 286 286 286 286 286 286 286 286 286 286 286 286 285 284 284 284 284 283 282 281 281 280 278 276 274 271 269 267 265 263 262 261 261 260 259 258 257 254 252 251 250 249 248 248 248 248 248 248 248 248 247 247 245 244 244 243 243 243 243 243 243 243 243 243 243 243 243
283 283 283 283 284 284 284 284 285 285 285 285 285 285 285 285 286 286 286 287 287 287 287 287 286 287 287 287 287 286 286 285 285 284 284 284 283 282 281 280 279 277 275 273 270 268 265 263 262 261 260 260 259 258 257 255 253 251 250 249 248 247 247 247 246 246 246 246 246 245 244 243 243 242 242 242 242 242 243 243 243 244 244 244 244
283 283 283 283 283 283 284 284 285 285 285 285 285 285 285 285 285 285 286 286 287 287 287 286 287 287 288 288 288 287 287 286 286 285 285 285 284 283 282 282 280 278 277 274 272 269 266 264 262 261 260 259 259 258 257 255 253 251 250 249 248 247 246 246 246 246 245 245 245 244 244 243 243 242 242 242 243 243 243 243 244 244 245 245 245
283 283 283 283 283 284 284 284 284 284 285 285 285 285 285 285 285 285 285 286 286 286 286 286 286 287 288 288 288 287 287 287 286 286 285 285 284 284 283 283 282 280 278 276 273 271 268 265 263 261 260 259 258 258 257 255 254 252 251 250 248 247 246 246 246 246 246 245 245 245 244 243 243 243 243 243 243 243 243 243 244 244 245 245 245
283 283 283 283 284 284 284 284 285 285 285 285 285 285 285 285 285 286 286 287 287 287 287 287 287 287 287 287 286 286 286 286 286 285 285 285 285 284 284 283 283 282 280 278 275 272 270 267 264 262 260 258 257 257 256 255 254 252 251 250 249 248 246 245 244 244 245 245 245 245 245 245 244 244 243 244 244 244 244 244 244 245 245 245 246
283 283 283 284 284 284 284 285 285 285 285 284 284 284 284 285 285 286 287 288 288 288 288 289 289 289 288 286 285 285 284 284 285 285 285 286 285 285 284 284 283 282 281 279 277 274 271 268 265 263 260 258 257 256 255 254 253 252 251 250 249 249 248 246 244 243 242 243 244 244 245 245 244 244 244 244 244 245 245 245 245 245 246 246 247
283 283 284 284 285 285 285 285 285 285 285 285 284 284 285 285 286 287 287 288 288 288 289 290 290 290 288 287 286 285 284 284 284 285 285 285 286 285 285 284 283 282 281 280 278 275 272 270 267 264 261 259 257 255 254 253 252 252 250 249 249 249 248 247 245 243 242 241 241 242 243 243 243 244 244 244 245 245 245 246 246 246 247 248 248
Height
10439 10439 10439 10439 10440 10440 10440 10440 10441 10441 10441 10441 10440 10440 10440 10440 10441 10441 10441 10442 10442 10443 10444 10445 10446 10447 10447 10448 10450 10450 10451 10452 10452 10454 10455 10457 10457 10458 10459 10461 10463 10464 10465 10466 10467 10469 10472 10474 10476 10476 10477 10481 10485 10486 10487 10488 10489 10490 10492 10495 10499 10503 10505 10508 10517 10526 10525 10521 10520 10518 10517 10519 10524 10528 10530 10531 10532 10534 10537 10541 10545 10549 10551 10552 10553
10417 10417 10418 10418 10418 10418 10418 10419 10419 10420 10420 10420 10420 10420 10420 10420 10421 10421 10421 10421 10422 10423 10424 10425 10426 10427 10428 10429 10430 10431 10432 10433 10434 10434 10436 10438 10439 10439 10440 10442 10444 10446 10447 10448 10449 10450 10453 10456 10458 10457 10458 10462 10466 10467 10469 10472 10473 10475 10476 10478 10481 10484 10485 10487 10495 10504 10508 10508 10507 10504 10503 10506 10510 10512 10514 10516 10517 10518 10523 10527 10531 10536 10538 10539 10540
10397 10396 10395 10395 10396 10396 10396 10396 10396 10397 10398 10398 10399 10399 10399 10400 10400 10401 10401 10401 10401 10402 10404 10405 10406 10407 10408 10409 10410 10411 10413 10414 10415 10415 10416 10418 10419 10420 10421 10422 10425 10427 10428 10430 10430 10431 10434 10437 10438 10438 10439 10442 10445 10447 10449 10452 10454 10457 10460 10460 10463 10467 10467 10468 10473 10482 10489 10491 10491 10491 10490 10491 10494 10496 10497 10499 10502 10505 10510 10513 10516 10521 10524 10525 10526
10375 10374 10373 10372 10372 10373 10373 10373 10373 10373 10374 10375 10376 10377 10377 10378 10379 10380 10380 10381 10381 10381 10382 10384 10385 10386 10387 10388 10390 10391 10393 10394 10395 10396 10396 10397 10399 10401 10401 10402 10404 10406 10409 10410 10411 10412 10414 10417 10418 10418 10419 10422 10425 10425 10427 10430 10433 10436 10440 10442 10444 10448 10450 10450 10454 10462 10468 10472 10475 10477 10476 10475 10478 10480 10481 10483 10487 10490 10494 10498 10502 10507 10509 10510 10512
10353 10352 10352 10351 10350 10350 10350 10350 10350 10350 10351 10352 10353 10354 10355 10356 10357 10358 10359 10359 10359 10359 10360 10361 10362 10364 10366 10367 10368 10370 10371 10373 10375 10376 10376 10376 10378 10380 10381 10381 10382 10385 10387 10389 10391 10392 10394 10396 10398 10398 10400 10402 10405 10405 10405 10408 10410 10413 10418 10420 10422 10426 10428 10430 10435 10440 10446 10453 10458 10459 10460 10460 10463 10465 10466 10467 10470 10472 10476 10482 10487 10490 10494 10496 10498
10332 10331 10330 10330 10329 10329 10328 10328 10328 10328 10329 10329 10330 10331 10332 10333 10334 10334 10335 10336 10336 10337 10338 10339 10340 10341 10342 10343 10345 10347 10349 10351 10352 10354 10354 10354 10356 10358 10359 10360 10360 10362 10364 10367 10369 10372 10374 10376 10377 10378 10379 10382 10384 10385 10385 10386 10388 10391 10395 10398 10399 10402 10405 10410 10414 10417 10423 10432 10438 10440 10443 10446 10447 10448 10449 10449 10450 10453 10458 10466 10471 10474 10478 10481 10482
10313 10312 10311 10310 10309 10308 10307 10307 10306 10306 10306 10306 10307 10307 10308 10309 10310 10310 10310 10311 10311 10312 10314 10315 10316 10317 10318 10319 10320 10322 10325 10327 10329 10330 10331 10331 10332 10334 10336 10338 10339 10340 10341 10343 10346 10349 10352 10355 10356 10357 10359 10361 10364 10365 10365 10365 10366 10368 10372 10374 10376 10378 10383 10388 10392 10395 10401 10408 10415 10420 10425 10428 10429 10430 10431 10430 10431 10436 10442 10449 10456 10457 10458 10461 10464
10296 10294 10293 10290 10288 10287 10286 10285 10285 10284 10284 10283 10283 10283 10284 10284 10285 10286 10286 10286 10287 10288 10289 10291 10292 10293 10293 10295 10296 10298 10300 10303 10305 10305 10305 10306 10308 10310 10312 10314 10316 10318 10319 10320 10322 10324 10328 10331 10333 10335 10336 10338 10341 10343 10344 10345 10345 10347 10349 10350 10352 10356 10361 10365 10369 10374 10380 10386 10392 10399 10404 10407 10410 10413 10415 10414 10416 10423 10427 10429 10431 10432 10434 10439 10443
10278 10276 10274 10271 10269 10267 10266 10265 10264 10263 10262 10262 10261 10261 10261 10261 10262 10262 10263 10263 10264 10265 10266 10267 10268 10269 10270 10271 10273 10275 10277 10279 10281 10279 10279 10280 10282 10284 10286 10289 10291 10293 10295 10298 10299 10301 10304 10306 10309 10312 10313 10314 10317 10319 10322 10324 10325 10327 10328 10327 10328 10333 10339 10343 10347 10352 10359 10365 10371 10377 10382 10388 10393 10397 10399 10402 10405 10407 10405 10402 10404 10409 10413 10418 10423
10259 10257 10254 10252 10250 10248 10247 10245 10244 10243 10242 10242 10242 10241 10241 10241 10241 10241 10241 10241 10242 10243 10245 10246 10246 10246 10248 10249 10250 10252 10254 10255 10256 10255 10253 10253 10254 10256 10259 10262 10266 10268 10271 10274 10277 10278 10279 10280 10284 10287 10290 10292 10294 10295 10298 10301 10303 10305 10307 10306 10308 10312 10317 10322 10327 10332 10337 10343 10349 10354 10360 10368 10377 10380 10383 10386 10386 10384 10382 10383 10387 10391 10393 10398 10406
10240 10238 10235 10233 10231 10230 10228 10227 10226 10225 10223 10222 10222 10222 10221 10221 10221 10221 10220 10220 10220 10221 10223 10224 10225 10225 10225 10227 10228 10229 10230 10231 10231 10229 10227 10226 10225 10227 10230 10234 10238 10243 10248 10252 10255 10257 10258 10258 10259 10262 10265 10269 10272 10273 10275 10278 10281 10283 10285 10287 10289 10293 10298 10302 10307 10312 10315 10321 10328 10332 10338 10349 10358 10361 10364 10366 10364 10363 10365 10366 10365 10368 10375 10383 10390
10221 10219 10217 10215 10213 10212 10211 10211 10209 10207 10204 10203 10203 10203 10202 10202 10202 10201 10201 10201 10201 10202 10202 10202 10203 10204 10203 10204 10206 10207 10208 10209 10207 10204 10202 10200 10199 10199 10202 10207 10212 10217 10224 10230 10234 10237 10238 10238 10240 10241 10243 10246 10249 10252 10255 10257 10259 10260 10263 10266 10270 10275 10281 10284 10289 10292 10294 10300 10307 10311 10319 10329 10335 10339 10343 10346 10345 10345 10345 10345 10346 10351 10358 10366 10372
10201 10199 10197 10195 10194 10194 10193 10193 10192 10189 10187 10185 10185 10185 10184 10184 10183 10182 10182 10183 10183 10183 10184 10183 10183 10183 10181 10181 10183 10185 10188 10189 10185 10181 10179 10178 10176 10175 10177 10184 10190 10196 10202 10208 10213 10218 10220 10220 10221 10222 10224 10226 10227 10229 10234 10237 10238 10238 10241 10245 10250 10257 10263 10266 10270 10274 10275 10280 10287 10294 10302 10308 10311 10316 10321 10323 10324 10324 10326 10329 10332 10335 10339 10348 10356
10182 10180 10178 10176 10174 10174 10174 10174 10173 10171 10169 10168 10168 10168 10167 10166 10165 10163 10163 10165 10165 10165 10165 10164 10162 10162 10160 10159 10161 10164 10168 10168 10164 10160 10159 10158 10157 10155 10156 10162 10169 10176 10182 10187 10191 10196 10200 10201 10202 10205 10207 10207 10208 10210 10212 10215 10217 10218 10220 10224 10231 10238 10243 10247 10252 10256 10258 10261 10267 10276 10283 10285 10288 10294 10298 10300 10304 10309 10311 10314 10316 10316 10320 10328 10334
10165 10163 10161 10158 10156 10155 10155 10154 10152 10151 10151 10150 10150 10149 10148 10147 10147 10146 10146 10147 10147 10146 10144 10144 10144 10144 10143 10142 10142 10146 10149 10147 10142 10139 10138 10137 10137 10136 10138 10142 10149 10155 10162 10167 10170 10174 10178 10180 10182 10186 10190 10190 10190 10191 10193 10194 10195 10197 10201 10206 10213 10218 10222 10228 10234 10238 10240 10242 10248 10257 10262 10262 10266 10272 10277 10281 10288 10293 10295 10296 10297 10298 10300 10306 10311
10150 10147 10144 10141 10139 10137 10136 10135 10134 10133 10133 10132 10131 10130 10129 10129 10128 10128 10129 10129 10127 10126 10126 10127 10128 10128 10127 10125 10124 10127 10132 10129 10122 10118 10117 10117 10116 10117 10120 10124 10130 10136 10142 10147 10149 10151 10155 10158 10160 10165 10170 10173 10174 10173 10172 10172 10173 10176 10181 10188 10194 10199 10204 10211 10215 10217 10219 10222 10228 10237 10241 10242 10245 10251 10258 10265 10270 10274 10276 10276 10280 10283 10286 10290 10299
10135 10132 10129 10126 10124 10121 10119 10118 10118 10117 10116 10114 10113 10112 10111 10111 10111 10109 10110 10112 10111 10111 10111 10113 10113 10111 10110 10108 10105 10106 10112 10110 10102 10097 10098 10098 10097 10098 10101 10106 10111 10117 10124 10128 10129 10129 10132 10136 10140 10145 10150 10155 10157 10155 10151 10148 10149 10155 10163 10169 10173 10178 10186 10194 10197 10196 10198 10202 10208 10216 10222 10224 10226 10231 10238 10246 10253 10255 10256 10260 10268 10272 10272 10276 10284
10119 10117 10114 10111 10108 10106 10104 10104 10104 10102 10100 10097 10097 10096 10095 10094 10093 10091 10092 10096 10097 10096 10095 10096 10097 10093 10090 10090 10087 10086 10091 10091 10083 10078 10079 10079 10078 10079 10084 10088 10093 10099 10104 10107 10109 10109 10112 10116 10119 10124 10130 10135 10137 10134 10129 10126 10126 10133 10143 10150 10154 10158 10167 10176 10176 10174 10175 10181 10188 10198 10204 10207 10209 10212 10217 10226 10234 10237 10239 10248 10255 10254 10254 10261 10269
10103 10101 10098 10095 10093 10092 10091 10090 10089 10087 10085 10083 10082 10081 10079 10077 10076 10076 10077 10079 10081 10080 10078 10078 10080 10077 10070 10069 10069 10068 10070 10072 10066 10060 10062 10063 10061 10062 10067 10072 10077 10081 10083 10086 10089 10092 10096 10099 10101 10101 10106 10113 10115 10113 10109 10106 10107 10113 10122 10129 10135 10144 10154 10157 10151 10149 10154 10160 10169 10179 10185 10189 10191 10194 10199 10206 10214 10220 10226 10234 10236 10234 10240 10250 10252
10087 10084 10081 10079 10078 10078 10077 10076 10074 10072 10071 10070 10067 10064 10063 10063 10062 10062 10062 10062 10063 10064 10063 10061 10062 10060 10053 10050 10051 10050 10051 10054 10051 10046 10047 10048 10046 10045 10049 10054 10059 10063 10065 10067 10072 10076 10079 10081 10083 10082 10082 10087 10091 10092 10090 10088 10090 10096 10102 10107 10116 10131 10141 10137 10127 10126 10134 10143 10151 10158 10165 10171 10175 10178 10183 10188 10195 10204 10213 10218 10218 10220 10228 10234 10233
10072 10068 10066 10064 10064 10063 10062 10060 10059 10057 10056 10055 10053 10050 10048 10048 10049 10047 10047 10047 10048 10048 10047 10045 10044 10044 10038 10034 10034 10033 10033 10036 10036 10032 10031 10032 10030 10029 10032 10036 10039 10043 10048 10052 10055 10060 10062 10062 10064 10064 10061 10062 10066 10070 10071 10072 10073 10078 10084 10090 10099 10111 10118 10114 10108 10110 10116 10125 10132 10139 10146 10154 10159 10163 10169 10173 10179 10187 10195 10199 10202 10206 10212 10215 10216
10057 10054 10052 10051 10050 10049 10047 10045 10044 10043 10040 10039 10039 10037 10034 10033 10034 10034 10033 10034 10034 10033 10030 10028 10028 10028 10024 10019 10018 10018 10017 10019 10020 10018 10016 10015 10014 10013 10016 10019 10021 10024 10032 10037 10038 10041 10045 10046 10046 10046 10044 10043 10046 10048 10050 10053 10055 10059 10068 10077 10084 10088 10091 10091 10092 10095 10100 10107 10115 10122 10129 10137 10143 10149 10155 10160 10165 10169 10173 10178 10184 10188 10194 10197 10200
10042 10039 10038 10037 10035 10033 10032 10030 10029 10027 10025 10024 10024 10022 10020 10018 10019 10019 10020 10020 10020 10018 10015 10013 10013 10013 10009 10005 10003 10003 10003 10002 10002 10002 10001 9999 9997 9997 9998 10001 10004 10007 10015 10021 10022 10023 10026 10029 10030 10029 10027 10027 10030 10031 10032 10033 10036 10041 10051 10060 10065 10069 10071 10071 10073 10078 10086 10092 10098 10106 10114 10121 10127 10134 10140 10145 10149 10151 10153 10157 10162 10168 10174 10180 10184
10027 10025 10024 10023 10021 10018 10017 10015 10013 10011 10010 10009 10008 10007 10006 10005 10005 10005 10005 10005 10005 10003 9999 9998 9998 9998 9995 9992 9989 9988 9988 9987 9986 9985 9984 9982 9981 9981 9982 9984 9987 9991 9998 10005 10007 10007 10009 10011 10012 10012 10011 10011 10013 10015 10016 10017 10020 10024 10031 10038 10044 10049 10051 10053 10056 10063 10071 10078 10084 10091 10100 10105 10110 10116 10123 10127 10129 10130 10132 10138 10143 10147 10155 10163 10168
10014 10012 10010 10008 10006 10005 10003 10000 9997 9996 9994 9993 9993 9992 9992 9992 9991 9990 9990 9989 9989 9987 9984 9983 9983 9982 9981 9978 9976 9974 9973 9972 9970 9968 9967 9967 9967 9967 9968 9970 9971 9975 9981 9988 9991 9993 9994 9995 9995 9996 9996 9996 9998 9999 10001 10003 10005 10007 10011 10015 10021 10028 10033 10037 10041 10046 10054 10064 10071 10076 10082 10087 10091 10096 10101 10103 10105 10110 10115 10122 10127 10132 10138 10145 10151
10000 9998 9996 9995 9993 9992 9990 9986 9982 9981 9979 9978 9979 9979 9979 9979 9977 9976 9975 9974 9973 9971 9970 9969 9968 9967 9966 9964 9962 9960 9957 9955 9953 9952 9951 9952 9952 9952 9954 9956 9957 9959 9965 9970 9974 9976 9978 9979 9980 9980 9981 9981 9982 9984 9987 9989 9988 9988 9991 9995 10001 10009 10017 10022 10026 10030 10037 10047 10055 10059 10063 10067 10069 10072 10075 10079 10085 10094 10101 10106 10111 10117 10123 10128 10133
9986 9984 9981 9981 9981 9979 9976 9972 9969 9967 9965 9964 9965 9964 9964 9964 9963 9962 9960 9960 9958 9956 9955 9954 9953 9953 9952 9950 9947 9945 9943 9940 9938 9937 9937 9937 9937 9937 9939 9941 9943 9945 9949 9953 9956 9958 9960 9963 9964 9965 9965 9966 9966 9968 9971 9972 9972 9972 9975 9978 9982 9990 9999 10005 10009 10013 10020 10028 10034 10040 10044 10045 10046 10050 10056 10062 10070 10078 10083 10087 10093 10101 10107 10112 10116
9973 9970 9968 9968 9967 9965 9961 9959 9957 9956 9953 9951 9951 9950 9949 9948 9947 9946 9945 9945 9944 9942 9940 9939 9939 9938 9938 9936 9934 9931 9928 9925 9924 9923 9923 9923 9922 9923 9924 9926 9929 9932 9933 9936 9939 9942 9943 9945 9947 9948 9948 9949 9949 9950 9952 9955 9957 9958 9959 9961 9965 9971 9979 9987 9993 9998 10004 10010 10015 10020 10025 10026 10028 10034 10041 10046 10052 10058 10063 10068 10075 10083 10089 10094 10099
9960 9957 9956 9956 9954 9951 9948 9947 9946 9945 9942 9939 9938 9936 9935 9933 9932 9931 9930 9929 9929 9929 9928 9926 9924 9924 9923 9922 9921 9919 9915 9911 9910 9910 9910 9909 9909 9910 9911 9912 9914 9917 9919 9921 9924 9926 9926 9927 9930 9930 9930 9931 9932 9933 9935 9937 9940 9941 9943 9945 9949 9954 9962 9972 9979 9984 9989 9993 9996 10001 10006 10009 10013 10018 10023 10027 10034 10040 10044 10050 10057 10064 10070 10075 10081
9947 9945 9944 9944 9941 9938 9936 9935 9934 9933 9931 9929 9926 9924 9921 9919 9918 9918 9918 9916 9914 9914 9915 9914 9912 9911 9910 9908 9907 9905 9903 9899 9897 9896 9896 9896 9896 9897 9899 9900 9901 9903 9905 9907 9909 9911 9911 9911 9912 9913 9914 9914 9916 9918 9919 9920 9922 9925 9927 9930 9934 9940 9947 9956 9963 9969 9972 9975 9979 9984 9987 9990 9996 10002 10007 10012 10018 10023 10028 10033 10039 10046 10052 10058 10063
9936 9933 9932 9931 9928 9926 9926 9925 9923 9921 9919 9918 9916 9914 9911 9906 9902 9902 9904 9905 9903 9901 9901 9901 9900 9899 9898 9897 9894 9891 9889 9889 9887 9884 9883 9883 9883 9883 9884 9886 9888 9890 9892 9895 9895 9894 9895 9895 9896 9897 9898 9899 9901 9902 9904 9905 9907 9910 9913 9916 9921 9927 9933 9939 9946 9951 9954 9957 9961 9965 9969 9974 9980 9987 9992 9997 10002 10007 10012 10017 10022 10029 10036 10041 10045
9925 9923 9922 9920 9916 9914 9914 9914 9912 9910 9908 9906 9904 9903 9901 9897 9891 9886 9885 9889 9891 9891 9889 9889 9888 9886 9885 9885 9883 9880 9877 9876 9876 9874 9872 9871 9871 9870 9870 9871 9874 9876 9879 9882 9882 9879 9879 9881 9882 9882 9883 9885 9885 9887 9889 9891 9894 9897 9901 9905 9909 9913 9918 9923 9928 9932 9936 9939 9943 9948 9954 9959 9965 9971 9975 9980 9984 9990 9996 10001 10007 10013 10019 10023 10028
9914 9913 9911 9909 9906 9903 9903 9902 9901 9899 9897 9895 9893 9891 9889 9887 9883 9876 9872 9871 9873 9876 9878 9878 9877 9875 9873 9871 9871 9870 9868 9866 9865 9863 9861 9860 9859 9859 9857 9857 9860 9863 9865 9867 9868 9866 9865 9866 9868 9868 9869 9871 9872 9873 9876 9879 9882 9886 9890 9893 9896 9899 9903 9906 9909 9914 9920 9925 9928 9933 9939 9945 9950 9955 9960 9964 9969 9975 9981 9986 9992 9997 10002 10007 10013
9903 9902 9901 9899 9895 9892 9891 9891 9890 9887 9885 9883 9882 9879 9877 9875 9872 9869 9864 9860 9858 9859 9862 9864 9865 9865 9863 9860 9858 9857 9857 9856 9854 9853 9852 9850 9848 9848 9846 9845 9846 9850 9852 9853 9853 9853 9852 9853 9854 9855 9856 9857 9859 9862 9864 9866 9870 9874 9877 9880 9882 9884 9887 9889 9892 9898 9906 9911 9913 9917 9923 9929 9935 9941 9945 9949 9954 9959 9965 9971 9976 9982 9987 9992 9998
9891 9890 9889 9888 9885 9882 9881 9880 9878 9876 9874 9872 9870 9868 9866 9864 9861 9858 9856 9853 9850 9847 9847 9848 9849 9850 9851 9850 9847 9845 9845 9845 9843 9842 9842 9841 9839 9837 9835 9834 9834 9837 9839 9840 9840 9839 9839 9840 9842 9843 9844 9845 9847 9849 9852 9854 9858 9861 9863 9865 9867 9869 9871 9874 9878 9883 9889 9894 9898 9903 9908 9913 9919 9926 9930 9934 9938 9943 9949 9955 9960 9966 9971 9976 9982
9880 9879 9878 9877 9875 9873 9872 9870 9868 9865 9863 9861 9858 9856 9855 9853 9850 9847 9845 9842 9841 9839 9837 9837 9836 9835 9836 9837 9836 9834 9834 9833 9831 9830 9830 9829 9829 9827 9825 9823 9823 9824 9826 9828 9828 9827 9827 9828 9830 9831 9832 9833 9834 9837 9839 9842 9845 9847 9849 9851 9853 9855 9858 9861 9865 9868 9873 9878 9884 9889 9894 9899 9905 9911 9916 9920 9924 9929 9934 9940 9945 9951 9957 9963 9969
9869 9868 9867 9865 9863 9862 9861 9859 9858 9856 9853 9850 9848 9846 9844 9843 9840 9838 9835 9832 9831 9829 9828 9828 9827 9825 9823 9823 9823 9823 9823 9822 9820 9819 9818 9817 9817 9816 9815 9814 9813 9813 9815 9817 9816 9815 9815 9816 9818 9819 9820 9821 9823 9825 9828 9830 9833 9835 9836 9838 9840 9842 9845 9848 9852 9856 9860 9865 9871 9876 9881 9885 9890 9896 9901 9907 9912 9916 9921 9926 9932 9938 9944 9950 9956
9858 9857 9855 9853 9852 9851 9849 9848 9847 9845 9843 9841 9839 9836 9834 9833 9830 9828 9825 9823 9822 9820 9818 9818 9818 9817 9814 9812 9810 9809 9811 9812 9811 9809 9808 9807 9806 9805 9805 9804 9803 9803 9804 9805 9805 9805 9804 9805 9807 9808 9809 9810 9812 9814 9816 9818 9820 9821 9823 9825 9828 9830 9834 9837 9841 9845 9849 9854 9858 9863 9868 9872 9876 9882 9888 9894 9900 9904 9908 9913 9918 9924 9930 9936 9943
9846 9845 9844 9842 9840 9839 9837 9836 9835 9835 9833 9831 9829 9827 9825 9823 9821 9819 9816 9814 9812 9811 9809 9808 9808 9808 9807 9804 9801 9798 9798 9800 9800 9799 9797 9797 9797 9795 9795 9794 9793 9793 9793 9794 9794 9794 9794 9795 9796 9797 9798 9800 9801 9803 9805 9807 9809 9811 9813 9815 9818 9820 9823 9827 9831 9834 9838 9842 9846 9851 9855 9859 9864 9869 9875 9881 9886 9891 9895 9899 9904 9910 9916 9923 9929
9835 9834 9834 9832 9829 9827 9826 9825 9823 9823 9822 9821 9819 9817 9815 9813 9811 9809 9806 9804 9802 9801 9800 9799 9799 9798 9798 9796 9793 9789 9787 9787 9789 9789 9787 9786 9786 9786 9785 9785 9784 9783 9783 9783 9783 9784 9785 9786 9786 9787 9789 9791 9792 9794 9797 9799 9801 9803 9805 9807 9809 9811 9814 9817 9821 9824 9828 9831 9835 9839 9842 9847 9852 9857 9863 9868 9873 9878 9882 9887 9892 9897 9903 9909 9916
9824 9823 9823 9821 9819 9817 9816 9814 9813 9812 9811 9810 9808 9807 9805 9803 9802 9799 9797 9795 9793 9791 9790 9790 9789 9789 9788 9787 9785 9782 9778 9776 9777 9779 9778 9776 9775 9775 9775 9775 9775 9774 9774 9773 9774 9774 9775 9776 9777 9778 9779 9781 9783 9785 9787 9789 9791 9793 9795 9797 9799 9801 9804 9807 9810 9813 9817 9820 9823 9827 9831 9835 9840 9845 9850 9856 9860 9864 9869 9874 9879 9884 9890 9895 9901
9814 9813 9812 9811 9809 9807 9805 9805 9804 9803 9801 9800 9798 9797 9795 9794 9792 9790 9788 9786 9784 9782 9781 9781 9780 9780 9779 9778 9776 9774 9771 9768 9767 9768 9768 9767 9765 9765 9765 9765 9765 9765 9764 9764 9764 9765 9765 9767 9768 9769 9770 9771 9773 9775 9777 9779 9781 9783 9784 9786 9788 9791 9793 9796 9799 9802 9806 9809 9812 9816 9820 9824 9829 9833 9838 9842 9846 9849 9854 9859 9865 9870 9875 9880 9886
9804 9803 9802 9800 9799 9797 9796 9795 9794 9793 9793 9791 9789 9787 9786 9784 9783 9781 9780 9778 9777 9775 9773 9772 9771 9770 9769 9769 9768 9766 9763 9761 9759 9758 9758 9758 9757 9756 9755 9756 9755 9755 9755 9755 9756 9756 9756 9757 9758 9759 9760 9761 9763 9765 9767 9769 9771 9773 9774 9776 9778 9780 9783 9785 9788 9792 9795 9799 9802 9806 9810 9814 9818 9822 9825 9828 9832 9836 9840 9845 9850 9855 9860 9866 9871
9794 9793 9792 9790 9789 9787 9786 9786 9785 9784 9783 9782 9780 9778 9776 9775 9774 9773 9771 9770 9769 9768 9766 9764 9762 9761 9760 9759 9758 9757 9755 9753 9751 9750 9749 9749 9748 9747 9746 9746 9746 9746 9746 9747 9747 9747 9748 9749 9749 9750 9751 9752 9754 9755 9757 9759 9761 9763 9764 9766 9767 9770 9772 9775 9778 9781 9785 9788 9792 9796 9799 9803 9806 9810 9813 9816 9820 9823 9827 9831 9836 9841 9846 9851 9856
9784 9783 9782 9781 9779 9778 9777 9776 9775 9775 9773 9772 9771 9769 9767 9765 9764 9763 9762 9762 9761 9760 9758 9756 9754 9753 9751 9750 9749 9747 9746 9745 9743 9742 9740 9740 9740 9739 9738 9738 9738 9738 9738 9738 9739 9739 9739 9740 9741 9741 9742 9743 9744 9746 9748 9750 9752 9753 9755 9756 9758 9760 9762 9764 9767 9770 9774 9778 9781 9785 9788 9792 9795 9798 9801 9804 9808 9812 9815 9819 9823 9828 9832 9837 9842
9775 9774 9773 9772 9770 9769 9769 9768 9767 9765 9764 9763 9762 9760 9759 9757 9756 9754 9753 9753 9752 9751 9750 9748 9746 9745 9743 9741 9740 9738 9737 9736 9735 9734 9732 9731 9731 9730 9729 9729 9729 9729 9729 9730 9730 9731 9731 9731 9732 9733 9734 9734 9736 9737 9739 9741 9743 9744 9745 9747 9748 9750 9752 9754 9757 9760 9763 9767 9770 9773 9777 9780 9784 9787 9790 9793 9797 9801 9805 9808 9812 9816 9820 9825 9829
9766 9765 9764 9763 9762 9761 9760 9760 9758 9757 9756 9754 9753 9751 9750 9749 9748 9747 9746 9745 9744 9743 9742 9740 9739 9737 9735 9733 9731 9730 9728 9727 9727 9726 9724 9723 9722 9722 9721 9721 9720 9721 9721 9721 9722 9722 9723 9723 9724 9724 9725 9726 9727 9729 9730 9732 9734 9735 9736 9737 9739 9741 9743 9745 9748 9751 9753 9757 9760 9763 9766 9770 9773 9777 9780 9783 9787 9791 9794 9797 9801 9805 9809 9813 9817
9757 9756 9755 9754 9753 9752 9752 9751 9750 9749 9748 9746 9745 9743 9742 9741 9740 9739 9738 9737 9737 9735 9734 9733 9732 9730 9729 9726 9724 9722 9720 9719 9718 9718 9717 9715 9714 9714 9714 9713 9712 9712 9713 9713 9714 9714 9715 9715 9716 9716 9717 9718 9719 9720 9722 9724 9725 9727 9728 9729 9731 9733 9735 9737 9739 9742 9745 9748 9751 9754 9757 9761 9764 9768 9771 9774 9777 9781 9784 9787 9791 9794 9798 9802 9805
9748 9747 9746 9745 9745 9744 9744 9743 9742 9741 9740 9739 9737 9736 9735 9733 9732 9731 9730 9729 9728 9727 9726 9725 9725 9724 9722 9720 9717 9715 9713 9712 9711 9710 9710 9708 9707 9706 9706 9705 9705 9705 9705 9705 9706 9707 9707 9708 9708 9709 9709 9710 9711 9712 9714 9716 9717 9719 9720 9721 9723 9725 9727 9729 9731 9734 9737 9740 9743 9746 9749 9753 9756 9759 9762 9765 9768 9771 9774 9778 9781 9785 9788 9791 9794
9740 9739 9738 9737 9737 9736 9735 9735 9734 9733 9732 9731 9730 9729 9728 9726 9725 9724 9723 9722 9721 9719 9718 9718 9717 9717 9716 9713 9710 9708 9707 9706 9704 9703 9703 9701 9700 9699 9699 9699 9698 9697 9697 9698 9698 9699 9700 9700 9701 9701 9702 9703 9703 9704 9706 9707 9709 9711 9712 9714 9715 9717 9719 9720 9723 9725 9728 9731 9734 9737 9740 9744 9747 9750 9753 9756 9759 9762 9765 9769 9772 9775 9778 9780 9783
9731 9730 9730 9729 9729 9728 9727 9727 9726 9725 9724 9723 9722 9721 9721 9719 9718 9717 9716 9714 9713 9712 9711 9711 9710 9710 9708 9706 9704 9701 9700 9699 9698 9697 9696 9695 9694 9693 9692 9692 9691 9691 9690 9691 9691 9691 9692 9693 9694 9694 9695 9696 9696 9697 9698 9699 9701 9703 9704 9706 9708 9709 9711 9713 9715 9717 9719 9722 9725 9728 9731 9734 9737 9740 9743 9746 9750 9753 9756 9759 9762 9765 9768 9770 9773